Tracking 32938 objects as of 12-Jan-2026
HD Live streaming from Space Station
objects crossing your sky now

STARLINK-2378

Track STARLINK-2378 now!
10-day predictions
STARLINK-2378 is classified as:


NORAD ID: 47916
Int'l Code: 2021-021BJ
Perigee: 553.4 km
Apogee: 555.4 km
Inclination: 53.1 °
Period: 95.6 minutes
Semi major axis: 6925 km
RCS: Unknown
Launch date: March 14, 2021
Source: United States (US)
Launch site: AIR FORCE EASTERN TEST RANGE (AFETR)
Your satellite tracking list
Your tracking list is empty




NASA's NSSDC Master Catalog

Two Line Element Set (TLE):
1 47916U 21021BJ  26011.68947280  .00001106  00000-0  93160-4 0  9998
2 47916  53.0550 157.5056 0001477  86.9883 273.1275 15.06391392267727
Source of the keplerian elements: AFSPC